STARLINK-32123, 60284

Orbit data source: Space-Track

STARLINK-32123, 60284 is a payload satellite owned by SpaceX/Seattle (US) in LEO that was launched on Sun, 28 Jul 2024 UTC via an FALCON 9 launch vehicle from the Air Force Eastern Test Range (AFETR). Payload-class satellites include a variety of spacecraft equipped with specific instruments for various scientific and technological missions. These include communications satellites like Starlink; space stations such as the ISS; scientific satellites like the Hubble; Earth observation satellites from companies like Planet Labs, Umbra, and HawkEye 360; GPS; miniature CubeSats for education and research; and military/defense satellites.

Loading next visibility...
Identifier
60284, 2024-132G
Orbit
LEO
Country
Flag of USUS
Related business
Manufacturer
SpaceX/Seattle
Mission
Operational Commercial Communications
Bus & Motor
STARLINK V2M, Unknown motor
Mass
730 kg wet, ~700 kg dry
Launch date (UTC)
2024-07-28 (2 years ago)
Launch vehicle
FALCON 9
Launch site
Air Force Eastern Test Range (AFETR)
Object type
Payload
Rocket body
Debris
Shape & HBR
Box + 2 Pan, 17.7 m
Radar Cross Section
33.884 m², Large (>1 m²)

Expand to show TLE details & history
Last TLE update: 7 hours ago

TLE from 7 hours ago
0 STARLINK-32123
1 60284U 24132G   26178.51749878  .00005203  00000-0  18777-3 0  9998
2 60284  53.1599 249.6586 0001125  98.1752 261.9376 15.30181725108551
Epoch: 2026-06-27T12:25Z
TLE epoch observation values (Epoch: 2026-06-27T12:25:11.894Z)
Latitude
-0.00006°
Longitude
147.72848°
Altitude
476.278 km
Speed
7.629 km/s
True Right ascension
16h 38m 38s
True Declination
0° 00' 00"
Sunlit
Object was in full shadow at epoch
Visualization orbit readout
Latitude
Unknown
Longitude
Unknown
Altitude
Unknown
Speed
Unknown
Apparent Right ascension
Unknown
Apparent Declination
Unknown
Sunlit
N/A
Visualization observer readout
Local Sidereal Time
07:16:06
Azimuth
Unknown
Elevation
Unknown
Doppler factor
Unknown
Orbital elements
Apogee altitude
476.297 km
Perigee altitude
474.755 km
Semi-major axis
6,853.663 km
Eccentricity
0.00011
Inclination
53.1599°
RAAN
249.6586°
Arg. of periapsis
98.1752°
True anomaly
261.92484°
Mean anomaly
261.9376°
Eccentric anomaly
261.93122°
Mean motion
3.82524 °/min
Orbital period
94.11 mins
BSTAR
0.00018777
Loading maneuver chart data...
Computing Atmospheric mass density...
Loading historical data...
Loading historical data...
Loading historical data...
Loading historical data...
Loading historical data...
Loading historical data...
Loading historical data...

Documentation

Showing up to 5 results
|